Tracking 28125 objects as of 4-Oct-2023
HD Live streaming from Space Station
objects crossing your sky now

THORAD AGENA D DEB

Track THORAD AGENA D DEB now!
10-day predictions


NORAD ID: 5220
Int'l Code: 1970-025KG
Perigee: 999.5 km
Apogee: 1,610.4 km
Inclination: 99.8 °
Period: 111.5 minutes
Semi major axis: 7675 km
RCS: 0.0252 m2 (small)
Launch date: April 8, 1970
Source: United States (US)
Launch site: AIR FORCE WESTERN TEST RANGE (AFWTR)

Note: This is SATELLITE DEBRIS
Your satellite tracking list
Your tracking list is empty




NASA's NSSDC Master Catalog

Two Line Element Set (TLE):
1 05220U 70025KG  23276.87611738  .00000961  00000-0  26449-2 0  9997
2 05220  99.8222 247.2474 0397950  52.0006   3.2584 12.90937653504005
Source of the keplerian elements: AFSPC